Regional Weather Roundup
Issued by NWS

Current Version | Previous Version | Text Only | Print | Product List | Glossary On
Versions: 1 2 3 4 5 6 7 8 9 10 11 12 13 14 15 16 17 18 19 20 21 22 23 24 25 26 27 28 29 30 31 32 33 34 35 36 37 38 39 40 41 42 43 44 45 46 47 48 49 50
000
ASUS44 KMEG 221510
RWRTN
TENNESSEE HOURLY STATE WEATHER ROUNDUP
NATIONAL WEATHER SERVICE MEMPHIS TN
900 AM CST SAT NOV 22 2014

TNZ002-004-019-021-049-052-054-088>092-221600-
WEST TENNESSEE

CITY           SKY/WX    TMP DP  RH WIND       PRES   REMARKS
MEMPHIS INTL   CLOUDY    60  42  51 S12G21    30.26S
NWS MEMPHIS      N/A     59 N/A N/A MISG        N/A
JACKSON        PTSUNNY   57  38  48 S9G17     30.28F
DYERSBURG      CLOUDY    54  36  50 SE10      30.27S
UNION CITY     SUNNY     54  43  66 S10       30.25S
PARIS            N/A     52  37  58 S9        30.29S
HUNTINGDON     CLOUDY    53  36  52 S12       30.29F
LEXINGTON      MOSUNNY   54  36  50 S7        30.30S
SAVANNAH       MOSUNNY   55  36  47 S13       30.30F
$$

TNZ008-025-027-028-033-062-065-066-221600-
NORTH MIDDLE TENNESSEE

CITY           SKY/WX    TMP DP  RH WIND       PRES   REMARKS
NASHVILLE      CLOUDY    53  30  41 S14G21    30.35S
CLARKSVILLE    PTSUNNY   56  35  45 S15       30.31S
SMYRNA         CLOUDY    52  32  46 S6        30.37S
COOKEVILLE     SUNNY     52  34  50 S9        30.37F
CROSSVILLE     MOSUNNY   49  28  44 VRB5G18   30.40S
$$

TNZ061-075-076-078-094-096-097-221600-
SOUTH MIDDLE TENNESSEE

CITY           SKY/WX    TMP DP  RH WIND       PRES   REMARKS
FAYETTEVILLE   SUNNY     52  34  50 N21G40    30.36F
TULLAHOMA      SUNNY     52  34  50 SE10      30.38F
WINCHESTER     SUNNY     52  34  50 S14       30.39F
MCMINNVILLE    MOSUNNY   55  36  47 CALM      30.37F
COLUMBIA       SUNNY     55  34  44 SE12      30.32S
SHELBYVILLE    SUNNY     54  36  50 S12       30.36F
$$

TNZ017-018-042-046-047-221600-
NORTHEAST TENNESSEE

CITY           SKY/WX    TMP DP  RH WIND       PRES   REMARKS
TRI CITIES     PTSUNNY   37  20  50 NE3       30.44F
ELIZABETHTON   SUNNY     41  19  42 E5        30.43F
$$

TNZ012-013-036-069-073-074-221600-
CENTRAL EAST TENNESSEE

CITY           SKY/WX    TMP DP  RH WIND       PRES   REMARKS
KNOXVILLE      PTSUNNY   39  25  57 CALM      30.45R
OAK RIDGE      MOSUNNY   38  29  70 CALM      30.46S
GATLINBURG     SUNNY     36  25  64 CALM      30.43F
MORRISTOWN     SUNNY     41  21  45 E5        30.43S
$$

TNZ083-085-099-221600-
SOUTHEAST TENNESSEE

CITY           SKY/WX    TMP DP  RH WIND       PRES   REMARKS
CHATTANOOGA    PTSUNNY   44  34  67 CALM      30.46S
$$

SKY/WX REPORTED AS FAIR MEANS FEW OR NO CLOUDS BELOW
12 THOUSAND FEET.




USA.gov is the U.S. government's official web portal to all federal, state and local government web resources and services.